Time,TemperatureF,DewpointF,PressureIn,WindDirection,WindDirectionDegrees,WindSpeedMPH,WindSpeedGustMPH,Humidity,HourlyPrecipIn,Conditions,Clouds,dailyrainin,SoftwareType,DateUTC
2013-05-06 00:00:00,43.8,37.0,30.30,South,180,0.0,0.0,75,0.00,,,0.00,Rainwise IP-100,2013-05-06 04:00:00,
2013-05-06 00:01:00,43.8,37.0,30.29,South,180,0.0,1.6,75,0.00,,,0.00,Rainwise IP-100,2013-05-06 04:01:00,
2013-05-06 00:06:00,43.5,37.0,30.30,South,180,0.0,0.0,76,0.00,,,0.00,Rainwise IP-100,2013-05-06 04:06:00,
2013-05-06 00:11:00,43.3,37.0,30.30,South,180,0.0,0.0,77,0.00,,,0.00,Rainwise IP-100,2013-05-06 04:11:00,
2013-05-06 00:13:00,43.2,37.0,30.30,South,180,0.0,0.0,77,0.00,,,0.00,Rainwise IP-100,2013-05-06 04:13:00,
2013-05-06 00:15:00,43.0,37.0,30.29,South,180,0.0,0.0,78,0.00,,,0.00,Rainwise IP-100,2013-05-06 04:15:00,
2013-05-06 00:20:00,42.9,37.0,30.29,WSW,247,1.6,1.6,78,0.00,,,0.00,Rainwise IP-100,2013-05-06 04:20:00,
2013-05-06 00:25:00,43.1,37.0,30.29,West,270,0.0,2.3,78,0.00,,,0.00,Rainwise IP-100,2013-05-06 04:25:00,
2013-05-06 00:30:00,43.4,37.0,30.30,West,270,0.0,1.4,78,0.00,,,0.00,Rainwise IP-100,2013-05-06 04:30:00,
2013-05-06 00:35:00,43.7,37.0,30.29,West,270,0.0,1.9,77,0.00,,,0.00,Rainwise IP-100,2013-05-06 04:35:00,
2013-05-06 00:40:00,43.7,37.0,30.29,West,270,0.0,1.2,77,0.00,,,0.00,Rainwise IP-100,2013-05-06 04:40:00,
2013-05-06 00:45:00,43.6,37.0,30.29,West,270,0.0,0.0,77,0.00,,,0.00,Rainwise IP-100,2013-05-06 04:45:00,
2013-05-06 00:50:00,43.5,37.0,30.29,West,270,0.0,0.0,77,0.00,,,0.00,Rainwise IP-100,2013-05-06 04:50:00,
2013-05-06 00:55:00,43.5,37.0,30.29,SW,225,1.9,2.8,77,0.00,,,0.00,Rainwise IP-100,2013-05-06 04:55:00,
2013-05-06 01:00:00,43.7,37.0,30.29,SW,225,0.0,2.8,76,0.00,,,0.00,Rainwise IP-100,2013-05-06 05:00:00,
2013-05-06 01:05:00,43.9,37.0,30.28,SW,225,1.9,3.5,76,0.00,,,0.00,Rainwise IP-100,2013-05-06 05:05:00,
2013-05-06 01:10:00,44.1,37.0,30.29,WSW,247,0.0,2.1,75,0.00,,,0.00,Rainwise IP-100,2013-05-06 05:10:00,
2013-05-06 01:15:00,44.3,36.0,30.29,WNW,292,0.0,6.3,74,0.00,,,0.00,Rainwise IP-100,2013-05-06 05:15:00,
2013-05-06 01:20:00,44.4,36.0,30.29,NW,315,3.0,3.5,74,0.00,,,0.00,Rainwise IP-100,2013-05-06 05:20:00,
2013-05-06 01:25:00,44.6,37.0,30.28,WNW,292,4.2,7.0,73,0.00,,,0.00,Rainwise IP-100,2013-05-06 05:25:00,
2013-05-06 01:30:00,44.8,37.0,30.28,NNW,337,1.6,7.2,73,0.00,,,0.00,Rainwise IP-100,2013-05-06 05:30:00,
2013-05-06 01:35:00,44.7,37.0,30.28,NW,315,4.4,6.5,73,0.00,,,0.00,Rainwise IP-100,2013-05-06 05:35:00,
2013-05-06 01:40:00,44.6,37.0,30.29,NW,315,4.7,4.9,74,0.00,,,0.00,Rainwise IP-100,2013-05-06 05:40:00,
2013-05-06 01:45:00,44.4,37.0,30.29,NW,315,2.3,4.9,75,0.00,,,0.00,Rainwise IP-100,2013-05-06 05:45:00,
2013-05-06 01:50:00,44.3,37.0,30.29,NW,315,0.0,2.6,76,0.00,,,0.00,Rainwise IP-100,2013-05-06 05:50:00,
2013-05-06 01:55:00,44.2,37.0,30.28,West,270,3.0,3.7,76,0.00,,,0.00,Rainwise IP-100,2013-05-06 05:55:00,
2013-05-06 02:00:00,44.0,37.0,30.29,West,270,0.0,4.0,77,0.00,,,0.00,Rainwise IP-100,2013-05-06 06:00:00,
2013-05-06 02:05:00,43.8,38.0,30.29,NW,315,1.6,0.0,78,0.00,,,0.00,Rainwise IP-100,2013-05-06 06:05:00,
2013-05-06 02:10:00,43.7,38.0,30.29,NNW,337,0.0,2.3,78,0.00,,,0.00,Rainwise IP-100,2013-05-06 06:10:00,
2013-05-06 02:15:00,43.7,38.0,30.28,NNW,337,0.0,1.2,79,0.00,,,0.00,Rainwise IP-100,2013-05-06 06:15:00,
2013-05-06 02:20:00,43.7,38.0,30.28,NW,315,3.0,3.3,79,0.00,,,0.00,Rainwise IP-100,2013-05-06 06:20:00,
2013-05-06 02:25:00,43.8,38.0,30.28,NW,315,1.9,3.3,79,0.00,,,0.00,Rainwise IP-100,2013-05-06 06:25:00,
2013-05-06 02:30:00,43.8,38.0,30.28,NW,315,0.0,2.3,79,0.00,,,0.00,Rainwise IP-100,2013-05-06 06:30:00,
2013-05-06 02:35:00,43.6,38.0,30.28,NW,315,0.0,2.1,80,0.00,,,0.00,Rainwise IP-100,2013-05-06 06:35:00,
2013-05-06 02:40:00,43.6,38.0,30.28,South,180,1.9,3.3,79,0.00,,,0.00,Rainwise IP-100,2013-05-06 06:40:00,
2013-05-06 02:45:00,43.6,38.0,30.28,SSW,202,0.0,2.3,79,0.00,,,0.00,Rainwise IP-100,2013-05-06 06:45:00,
2013-05-06 02:50:00,43.6,38.0,30.28,SSW,202,0.0,0.0,79,0.00,,,0.00,Rainwise IP-100,2013-05-06 06:50:00,
2013-05-06 02:55:00,43.5,38.0,30.28,SSW,202,0.0,1.4,79,0.00,,,0.00,Rainwise IP-100,2013-05-06 06:55:00,
2013-05-06 03:00:00,43.5,38.0,30.28,SSW,202,0.0,0.0,80,0.00,,,0.00,Rainwise IP-100,2013-05-06 07:00:00,
2013-05-06 03:05:00,43.5,38.0,30.28,SSW,202,0.0,2.3,80,0.00,,,0.00,Rainwise IP-100,2013-05-06 07:05:00,
2013-05-06 03:10:00,43.4,37.0,30.28,SSW,202,0.0,1.9,80,0.00,,,0.00,Rainwise IP-100,2013-05-06 07:10:00,
2013-05-06 03:15:00,43.8,38.0,30.28,SSE,157,1.6,3.7,79,0.00,,,0.00,Rainwise IP-100,2013-05-06 07:15:00,
2013-05-06 03:20:00,44.1,38.0,30.28,SSE,157,0.0,2.3,78,0.00,,,0.00,Rainwise IP-100,2013-05-06 07:20:00,
2013-05-06 03:25:00,43.8,38.0,30.28,SSW,202,0.0,2.3,78,0.00,,,0.00,Rainwise IP-100,2013-05-06 07:25:00,
2013-05-06 03:30:00,43.5,38.0,30.27,NNW,337,1.4,1.6,79,0.00,,,0.00,Rainwise IP-100,2013-05-06 07:30:00,
2013-05-06 03:35:00,43.3,37.0,30.28,SW,225,0.0,2.3,80,0.00,,,0.00,Rainwise IP-100,2013-05-06 07:35:00,
2013-05-06 03:40:00,43.3,37.0,30.28,SW,225,0.0,1.6,80,0.00,,,0.00,Rainwise IP-100,2013-05-06 07:40:00,
2013-05-06 03:45:00,43.2,38.0,30.28,SSE,157,0.0,1.4,81,0.00,,,0.00,Rainwise IP-100,2013-05-06 07:45:00,
2013-05-06 03:50:00,43.3,38.0,30.28,East,90,3.5,4.7,81,0.00,,,0.00,Rainwise IP-100,2013-05-06 07:50:00,
2013-05-06 03:55:00,43.6,38.0,30.28,ESE,112,1.4,5.1,80,0.00,,,0.00,Rainwise IP-100,2013-05-06 07:55:00,
2013-05-06 04:00:00,43.8,38.0,30.28,West,270,0.0,2.6,78,0.00,,,0.00,Rainwise IP-100,2013-05-06 08:00:00,
2013-05-06 04:05:00,43.8,38.0,30.28,ENE,67,0.0,2.1,78,0.00,,,0.00,Rainwise IP-100,2013-05-06 08:05:00,
2013-05-06 04:10:00,43.7,38.0,30.28,East,90,0.0,2.3,78,0.00,,,0.00,Rainwise IP-100,2013-05-06 08:10:00,
2013-05-06 04:15:00,43.6,38.0,30.28,SSE,157,2.8,3.0,79,0.00,,,0.00,Rainwise IP-100,2013-05-06 08:15:00,
2013-05-06 04:20:00,43.6,38.0,30.28,NNE,22,1.2,4.7,80,0.00,,,0.00,Rainwise IP-100,2013-05-06 08:20:00,
2013-05-06 04:25:00,43.5,38.0,30.28,North,0,1.4,4.0,80,0.00,,,0.00,Rainwise IP-100,2013-05-06 08:25:00,
2013-05-06 04:30:00,43.2,38.0,30.28,North,0,1.2,3.3,81,0.00,,,0.00,Rainwise IP-100,2013-05-06 08:30:00,
2013-05-06 04:35:00,43.0,38.0,30.28,North,0,0.0,2.3,81,0.00,,,0.00,Rainwise IP-100,2013-05-06 08:35:00,
2013-05-06 04:40:00,43.0,38.0,30.28,North,0,0.0,2.3,82,0.00,,,0.00,Rainwise IP-100,2013-05-06 08:40:00,
2013-05-06 04:45:00,43.0,38.0,30.27,NNW,337,0.0,2.1,82,0.00,,,0.00,Rainwise IP-100,2013-05-06 08:45:00,
2013-05-06 04:50:00,43.2,38.0,30.28,NNE,22,1.2,1.9,82,0.00,,,0.00,Rainwise IP-100,2013-05-06 08:50:00,
2013-05-06 04:55:00,43.1,38.0,30.28,NE,45,0.0,3.3,82,0.00,,,0.00,Rainwise IP-100,2013-05-06 08:55:00,
2013-05-06 05:00:00,43.0,38.0,30.28,South,180,1.6,2.3,82,0.00,,,0.00,Rainwise IP-100,2013-05-06 09:00:00,
2013-05-06 05:05:00,43.1,38.0,30.28,SSE,157,1.6,2.3,83,0.00,,,0.00,Rainwise IP-100,2013-05-06 09:05:00,
2013-05-06 05:10:00,43.3,39.0,30.28,SSE,157,0.0,2.6,84,0.00,,,0.00,Rainwise IP-100,2013-05-06 09:10:00,
2013-05-06 05:15:00,43.4,39.0,30.28,East,90,1.4,4.9,85,0.00,,,0.00,Rainwise IP-100,2013-05-06 09:15:00,
2013-05-06 05:20:00,43.6,40.0,30.28,ENE,67,0.0,4.4,85,0.00,,,0.00,Rainwise IP-100,2013-05-06 09:20:00,
2013-05-06 05:25:00,43.7,40.0,30.28,ENE,67,1.9,4.4,86,0.00,,,0.00,Rainwise IP-100,2013-05-06 09:25:00,
2013-05-06 05:26:00,43.7,40.0,30.28,ENE,67,0.0,4.4,87,0.00,,,0.00,Rainwise IP-100,2013-05-06 09:26:00,
2013-05-06 05:31:00,43.8,41.0,30.28,East,90,3.5,4.9,88,0.00,,,0.00,Rainwise IP-100,2013-05-06 09:31:00,
2013-05-06 05:36:00,44.0,41.0,30.28,East,90,5.6,5.6,90,0.00,,,0.00,Rainwise IP-100,2013-05-06 09:36:00,
2013-05-06 05:41:00,44.3,41.0,30.28,East,90,2.3,6.1,90,0.00,,,0.00,Rainwise IP-100,2013-05-06 09:41:00,
2013-05-06 05:46:00,44.5,42.0,30.28,East,90,3.0,4.7,90,0.00,,,0.00,Rainwise IP-100,2013-05-06 09:46:00,
2013-05-06 05:51:00,44.6,42.0,30.29,NE,45,1.9,5.1,90,0.00,,,0.00,Rainwise IP-100,2013-05-06 09:51:00,
2013-05-06 05:56:00,44.6,42.0,30.29,ENE,67,3.0,3.7,90,0.00,,,0.00,Rainwise IP-100,2013-05-06 09:56:00,
2013-05-06 06:01:00,44.9,42.0,30.29,NNE,22,0.0,4.2,90,0.00,,,0.00,Rainwise IP-100,2013-05-06 10:01:00,
2013-05-06 06:06:00,45.3,42.0,30.30,East,90,3.0,3.5,89,0.00,,,0.00,Rainwise IP-100,2013-05-06 10:06:00,
2013-05-06 06:11:00,45.2,41.0,30.30,ENE,67,1.6,5.6,88,0.00,,,0.00,Rainwise IP-100,2013-05-06 10:11:00,
2013-05-06 06:16:00,45.5,42.0,30.30,ENE,67,3.5,3.5,88,0.00,,,0.00,Rainwise IP-100,2013-05-06 10:16:00,
2013-05-06 06:21:00,45.9,42.0,30.30,East,90,0.0,4.9,87,0.00,,,0.00,Rainwise IP-100,2013-05-06 10:21:00,
2013-05-06 06:26:00,46.4,42.0,30.31,ENE,67,1.2,4.0,87,0.00,,,0.00,Rainwise IP-100,2013-05-06 10:26:00,
2013-05-06 06:31:00,47.1,43.0,30.31,ENE,67,0.0,3.0,87,0.00,,,0.00,Rainwise IP-100,2013-05-06 10:31:00,
2013-05-06 06:36:00,47.9,44.0,30.31,ENE,67,0.0,2.1,86,0.00,,,0.00,Rainwise IP-100,2013-05-06 10:36:00,
2013-05-06 06:41:00,49.2,45.0,30.31,NE,45,0.0,0.0,86,0.00,,,0.00,Rainwise IP-100,2013-05-06 10:41:00,
2013-05-06 06:46:00,50.2,45.0,30.31,NE,45,0.0,0.0,83,0.00,,,0.00,Rainwise IP-100,2013-05-06 10:46:00,
2013-05-06 06:51:00,50.5,45.0,30.31,ESE,112,1.4,2.1,80,0.00,,,0.00,Rainwise IP-100,2013-05-06 10:51:00,
2013-05-06 06:56:00,49.9,43.0,30.31,East,90,2.1,2.3,77,0.00,,,0.00,Rainwise IP-100,2013-05-06 10:56:00,
2013-05-06 07:01:00,49.1,42.0,30.31,ESE,112,3.0,3.0,76,0.00,,,0.00,Rainwise IP-100,2013-05-06 11:01:00,
2013-05-06 07:06:00,48.5,42.0,30.31,ESE,112,0.0,3.7,77,0.00,,,0.00,Rainwise IP-100,2013-05-06 11:06:00,
2013-05-06 07:11:00,48.7,42.0,30.31,East,90,1.6,3.0,78,0.00,,,0.00,Rainwise IP-100,2013-05-06 11:11:00,
2013-05-06 07:16:00,48.6,42.0,30.31,SE,135,3.0,4.9,77,0.00,,,0.00,Rainwise IP-100,2013-05-06 11:16:00,
2013-05-06 07:21:00,48.2,42.0,30.31,South,180,0.0,4.4,78,0.00,,,0.00,Rainwise IP-100,2013-05-06 11:21:00,
2013-05-06 07:26:00,49.1,42.0,30.31,SE,135,2.3,6.3,77,0.00,,,0.00,Rainwise IP-100,2013-05-06 11:26:00,
2013-05-06 07:31:00,50.0,42.0,30.31,WNW,292,4.2,5.8,76,0.00,,,0.00,Rainwise IP-100,2013-05-06 11:31:00,
2013-05-06 07:36:00,50.9,43.0,30.32,SSW,202,3.5,7.2,74,0.00,,,0.00,Rainwise IP-100,2013-05-06 11:36:00,
2013-05-06 07:41:00,52.0,42.0,30.31,SSW,202,6.3,9.6,69,0.00,,,0.00,Rainwise IP-100,2013-05-06 11:41:00,
2013-05-06 07:46:00,52.5,41.0,30.31,West,270,2.8,11.9,65,0.00,,,0.00,Rainwise IP-100,2013-05-06 11:46:00,
2013-05-06 07:51:00,52.7,40.0,30.31,SW,225,1.9,13.5,62,0.00,,,0.00,Rainwise IP-100,2013-05-06 11:51:00,
2013-05-06 07:56:00,52.7,40.0,30.32,SSE,157,0.0,9.1,62,0.00,,,0.00,Rainwise IP-100,2013-05-06 11:56:00,
2013-05-06 08:01:00,53.0,40.0,30.31,WNW,292,4.7,8.6,62,0.00,,,0.00,Rainwise IP-100,2013-05-06 12:01:00,
2013-05-06 08:06:00,53.4,40.0,30.31,NNW,337,4.7,12.8,61,0.00,,,0.00,Rainwise IP-100,2013-05-06 12:06:00,
2013-05-06 08:11:00,53.4,39.0,30.31,WSW,247,6.8,8.6,59,0.00,,,0.00,Rainwise IP-100,2013-05-06 12:11:00,
2013-05-06 08:16:00,53.5,39.0,30.31,WNW,292,7.2,12.6,59,0.00,,,0.00,Rainwise IP-100,2013-05-06 12:16:00,
2013-05-06 08:21:00,53.8,40.0,30.30,WNW,292,6.3,14.0,59,0.00,,,0.00,Rainwise IP-100,2013-05-06 12:21:00,
2013-05-06 08:26:00,53.9,40.0,30.30,SSE,157,2.1,13.5,59,0.00,,,0.00,Rainwise IP-100,2013-05-06 12:26:00,
2013-05-06 08:31:00,53.7,40.0,30.31,SE,135,1.4,7.0,60,0.00,,,0.00,Rainwise IP-100,2013-05-06 12:31:00,
2013-05-06 08:36:00,53.0,40.0,30.30,SE,135,5.1,8.2,63,0.00,,,0.00,Rainwise IP-100,2013-05-06 12:36:00,
2013-05-06 08:41:00,52.1,40.0,30.31,NW,315,5.8,9.1,65,0.00,,,0.00,Rainwise IP-100,2013-05-06 12:41:00,
2013-05-06 08:46:00,52.6,41.0,30.31,ENE,67,2.1,7.5,65,0.00,,,0.00,Rainwise IP-100,2013-05-06 12:46:00,
2013-05-06 08:51:00,52.7,41.0,30.31,ESE,112,0.0,6.5,65,0.00,,,0.00,Rainwise IP-100,2013-05-06 12:51:00,
2013-05-06 08:56:00,52.3,42.0,30.31,North,0,1.6,4.4,68,0.00,,,0.00,Rainwise IP-100,2013-05-06 12:56:00,
2013-05-06 09:01:00,52.8,43.0,30.31,SSE,157,6.3,8.9,69,0.00,,,0.00,Rainwise IP-100,2013-05-06 13:01:00,
2013-05-06 09:06:00,53.0,42.0,30.31,West,270,7.5,7.5,67,0.00,,,0.00,Rainwise IP-100,2013-05-06 13:06:00,
2013-05-06 09:11:00,53.7,41.0,30.31,SW,225,0.0,10.0,64,0.00,,,0.00,Rainwise IP-100,2013-05-06 13:11:00,
2013-05-06 09:16:00,53.9,41.0,30.31,ESE,112,7.2,8.6,63,0.00,,,0.00,Rainwise IP-100,2013-05-06 13:16:00,
2013-05-06 09:21:00,52.6,42.0,30.31,SW,225,5.1,10.0,67,0.00,,,0.00,Rainwise IP-100,2013-05-06 13:21:00,
2013-05-06 09:26:00,53.6,42.0,30.31,SSW,202,2.6,9.1,65,0.00,,,0.00,Rainwise IP-100,2013-05-06 13:26:00,
2013-05-06 09:31:00,55.8,42.0,30.31,West,270,7.7,7.7,60,0.00,,,0.00,Rainwise IP-100,2013-05-06 13:31:00,
2013-05-06 09:36:00,56.4,42.0,30.31,SW,225,7.0,9.6,58,0.00,,,0.00,Rainwise IP-100,2013-05-06 13:36:00,
2013-05-06 09:41:00,56.3,41.0,30.31,WSW,247,3.5,11.4,57,0.00,,,0.00,Rainwise IP-100,2013-05-06 13:41:00,
2013-05-06 09:46:00,56.2,41.0,30.31,West,270,7.9,7.9,58,0.00,,,0.00,Rainwise IP-100,2013-05-06 13:46:00,
2013-05-06 09:51:00,56.7,42.0,30.31,West,270,5.1,11.0,58,0.00,,,0.00,Rainwise IP-100,2013-05-06 13:51:00,
2013-05-06 09:56:00,57.3,42.0,30.31,WSW,247,0.0,9.6,56,0.00,,,0.00,Rainwise IP-100,2013-05-06 13:56:00,
2013-05-06 10:01:00,57.9,42.0,30.31,West,270,6.1,9.8,56,0.00,,,0.00,Rainwise IP-100,2013-05-06 14:01:00,
2013-05-06 10:06:00,58.3,42.0,30.31,WSW,247,1.9,9.8,55,0.00,,,0.00,Rainwise IP-100,2013-05-06 14:06:00,
2013-05-06 10:11:00,58.1,42.0,30.31,SW,225,7.5,15.2,55,0.00,,,0.00,Rainwise IP-100,2013-05-06 14:11:00,
2013-05-06 10:16:00,58.0,42.0,30.31,West,270,6.3,12.4,55,0.00,,,0.00,Rainwise IP-100,2013-05-06 14:16:00,
2013-05-06 10:21:00,57.9,42.0,30.31,SW,225,6.1,11.9,55,0.00,,,0.00,Rainwise IP-100,2013-05-06 14:21:00,
2013-05-06 10:26:00,57.7,41.0,30.31,West,270,7.7,11.4,55,0.00,,,0.00,Rainwise IP-100,2013-05-06 14:26:00,
2013-05-06 10:31:00,57.4,41.0,30.31,WNW,292,4.0,14.9,55,0.00,,,0.00,Rainwise IP-100,2013-05-06 14:31:00,
2013-05-06 10:36:00,57.3,42.0,30.31,WNW,292,2.3,12.4,56,0.00,,,0.00,Rainwise IP-100,2013-05-06 14:36:00,
2013-05-06 10:41:00,57.7,42.0,30.31,SW,225,6.3,10.7,56,0.00,,,0.00,Rainwise IP-100,2013-05-06 14:41:00,
2013-05-06 10:46:00,58.0,42.0,30.31,South,180,1.4,11.9,56,0.00,,,0.00,Rainwise IP-100,2013-05-06 14:46:00,
2013-05-06 10:51:00,58.1,42.0,30.30,SSW,202,3.5,12.8,55,0.00,,,0.00,Rainwise IP-100,2013-05-06 14:51:00,
2013-05-06 10:56:00,58.4,42.0,30.31,West,270,4.7,11.4,55,0.00,,,0.00,Rainwise IP-100,2013-05-06 14:56:00,
2013-05-06 11:01:00,58.7,43.0,30.31,SW,225,6.8,7.7,55,0.00,,,0.00,Rainwise IP-100,2013-05-06 15:01:00,
2013-05-06 11:06:00,58.4,41.0,30.31,South,180,10.0,12.4,54,0.00,,,0.00,Rainwise IP-100,2013-05-06 15:06:00,
2013-05-06 11:11:00,58.0,42.0,30.30,ESE,112,3.7,12.1,55,0.00,,,0.00,Rainwise IP-100,2013-05-06 15:11:00,
2013-05-06 11:16:00,58.4,42.0,30.31,South,180,0.0,10.0,55,0.00,,,0.00,Rainwise IP-100,2013-05-06 15:16:00,
2013-05-06 11:21:00,58.9,42.0,30.31,West,270,7.9,12.8,54,0.00,,,0.00,Rainwise IP-100,2013-05-06 15:21:00,
2013-05-06 11:26:00,59.2,42.0,30.30,WNW,292,8.4,15.4,53,0.00,,,0.00,Rainwise IP-100,2013-05-06 15:26:00,
2013-05-06 11:31:00,59.0,42.0,30.31,SW,225,1.9,12.4,53,0.00,,,0.00,Rainwise IP-100,2013-05-06 15:31:00,
2013-05-06 11:36:00,59.3,42.0,30.31,West,270,7.2,11.2,53,0.00,,,0.00,Rainwise IP-100,2013-05-06 15:36:00,
2013-05-06 11:41:00,59.5,42.0,30.31,SE,135,4.0,10.3,53,0.00,,,0.00,Rainwise IP-100,2013-05-06 15:41:00,
2013-05-06 11:46:00,58.7,42.0,30.31,South,180,3.0,17.3,53,0.00,,,0.00,Rainwise IP-100,2013-05-06 15:46:00,
2013-05-06 11:51:00,58.2,41.0,30.31,WNW,292,6.1,16.8,54,0.00,,,0.00,Rainwise IP-100,2013-05-06 15:51:00,
2013-05-06 11:56:00,58.3,41.0,30.30,NW,315,7.2,14.2,54,0.00,,,0.00,Rainwise IP-100,2013-05-06 15:56:00,
2013-05-06 12:01:00,58.6,42.0,30.30,NW,315,1.2,9.6,54,0.00,,,0.00,Rainwise IP-100,2013-05-06 16:01:00,
2013-05-06 12:06:00,59.0,42.0,30.31,WSW,247,5.4,14.0,53,0.00,,,0.00,Rainwise IP-100,2013-05-06 16:06:00,
2013-05-06 12:11:00,58.6,42.0,30.30,SW,225,6.3,11.4,53,0.00,,,0.00,Rainwise IP-100,2013-05-06 16:11:00,
2013-05-06 12:16:00,58.4,41.0,30.30,West,270,12.6,12.6,54,0.00,,,0.00,Rainwise IP-100,2013-05-06 16:16:00,
2013-05-06 12:21:00,58.5,42.0,30.30,West,270,3.5,14.9,54,0.00,,,0.00,Rainwise IP-100,2013-05-06 16:21:00,
2013-05-06 12:26:00,59.0,42.0,30.30,WSW,247,5.1,13.8,54,0.00,,,0.00,Rainwise IP-100,2013-05-06 16:26:00,
2013-05-06 12:31:00,59.3,43.0,30.29,NW,315,7.9,10.5,54,0.00,,,0.00,Rainwise IP-100,2013-05-06 16:31:00,
2013-05-06 12:36:00,59.2,43.0,30.29,WSW,247,5.6,12.8,55,0.00,,,0.00,Rainwise IP-100,2013-05-06 16:36:00,
2013-05-06 12:41:00,59.1,43.0,30.29,West,270,2.8,13.3,55,0.00,,,0.00,Rainwise IP-100,2013-05-06 16:41:00,
2013-05-06 12:46:00,59.2,43.0,30.29,SSW,202,4.4,10.3,55,0.00,,,0.00,Rainwise IP-100,2013-05-06 16:46:00,
2013-05-06 12:51:00,59.2,43.0,30.28,WSW,247,4.2,11.2,56,0.00,,,0.00,Rainwise IP-100,2013-05-06 16:51:00,
2013-05-06 12:56:00,59.6,44.0,30.28,SSE,157,5.4,8.6,56,0.00,,,0.00,Rainwise IP-100,2013-05-06 16:56:00,
2013-05-06 13:01:00,59.8,44.0,30.28,South,180,10.0,14.0,55,0.00,,,0.00,Rainwise IP-100,2013-05-06 17:01:00,
2013-05-06 13:06:00,59.4,44.0,30.27,WSW,247,7.2,11.9,56,0.00,,,0.00,Rainwise IP-100,2013-05-06 17:06:00,
2013-05-06 13:11:00,59.8,44.0,30.28,NE,45,1.2,9.8,55,0.00,,,0.00,Rainwise IP-100,2013-05-06 17:11:00,
2013-05-06 13:16:00,60.5,44.0,30.27,SSW,202,1.9,10.5,54,0.00,,,0.00,Rainwise IP-100,2013-05-06 17:16:00,
2013-05-06 13:21:00,60.9,44.0,30.27,SW,225,2.6,11.0,54,0.00,,,0.00,Rainwise IP-100,2013-05-06 17:21:00,
2013-05-06 13:26:00,60.2,44.0,30.28,NNW,337,2.8,8.6,55,0.00,,,0.00,Rainwise IP-100,2013-05-06 17:26:00,
2013-05-06 13:31:00,60.3,45.0,30.28,NW,315,4.0,12.4,56,0.00,,,0.00,Rainwise IP-100,2013-05-06 17:31:00,
2013-05-06 13:36:00,61.4,45.0,30.27,NW,315,4.9,11.7,55,0.00,,,0.00,Rainwise IP-100,2013-05-06 17:36:00,
2013-05-06 13:41:00,61.4,45.0,30.27,NW,315,4.4,13.1,54,0.00,,,0.00,Rainwise IP-100,2013-05-06 17:41:00,
2013-05-06 13:46:00,61.6,45.0,30.27,NW,315,4.4,11.0,54,0.00,,,0.00,Rainwise IP-100,2013-05-06 17:46:00,
2013-05-06 13:51:00,60.6,44.0,30.26,East,90,6.1,10.7,55,0.00,,,0.00,Rainwise IP-100,2013-05-06 17:51:00,
2013-05-06 13:56:00,58.9,45.0,30.26,WNW,292,2.3,8.2,59,0.00,,,0.00,Rainwise IP-100,2013-05-06 17:56:00,
2013-05-06 14:01:00,60.2,46.0,30.27,SSE,157,0.0,8.9,59,0.00,,,0.00,Rainwise IP-100,2013-05-06 18:01:00,
2013-05-06 14:06:00,61.9,46.0,30.26,NNE,22,2.1,6.5,56,0.00,,,0.00,Rainwise IP-100,2013-05-06 18:06:00,
2013-05-06 14:11:00,62.0,46.0,30.27,WSW,247,7.2,7.7,55,0.00,,,0.00,Rainwise IP-100,2013-05-06 18:11:00,
2013-05-06 14:16:00,62.4,46.0,30.26,SSW,202,4.2,11.4,54,0.00,,,0.00,Rainwise IP-100,2013-05-06 18:16:00,
2013-05-06 14:21:00,62.4,45.0,30.26,SW,225,12.6,12.6,53,0.00,,,0.00,Rainwise IP-100,2013-05-06 18:21:00,
2013-05-06 14:26:00,61.7,45.0,30.27,SSW,202,4.0,15.4,54,0.00,,,0.00,Rainwise IP-100,2013-05-06 18:26:00,
2013-05-06 14:31:00,61.5,45.0,30.26,South,180,4.0,9.8,54,0.00,,,0.00,Rainwise IP-100,2013-05-06 18:31:00,
2013-05-06 14:36:00,61.4,45.0,30.26,SW,225,11.7,14.5,54,0.00,,,0.00,Rainwise IP-100,2013-05-06 18:36:00,
2013-05-06 14:41:00,61.0,44.0,30.26,SSE,157,5.1,11.7,54,0.00,,,0.00,Rainwise IP-100,2013-05-06 18:41:00,
2013-05-06 14:46:00,61.3,45.0,30.26,SW,225,2.3,9.6,55,0.00,,,0.00,Rainwise IP-100,2013-05-06 18:46:00,
2013-05-06 14:51:00,61.9,46.0,30.26,WNW,292,1.4,9.8,55,0.00,,,0.00,Rainwise IP-100,2013-05-06 18:51:00,
2013-05-06 14:56:00,61.7,45.0,30.26,West,270,4.2,12.8,55,0.00,,,0.00,Rainwise IP-100,2013-05-06 18:56:00,
2013-05-06 15:01:00,61.4,45.0,30.26,WSW,247,10.0,10.0,54,0.00,,,0.00,Rainwise IP-100,2013-05-06 19:01:00,
2013-05-06 15:06:00,61.5,45.0,30.25,West,270,2.8,14.0,55,0.00,,,0.00,Rainwise IP-100,2013-05-06 19:06:00,
2013-05-06 15:11:00,61.1,45.0,30.25,NE,45,0.0,12.6,56,0.00,,,0.00,Rainwise IP-100,2013-05-06 19:11:00,
2013-05-06 15:16:00,60.8,46.0,30.26,SSW,202,4.2,11.2,57,0.00,,,0.00,Rainwise IP-100,2013-05-06 19:16:00,
2013-05-06 15:21:00,60.6,46.0,30.25,SE,135,6.5,9.3,58,0.00,,,0.00,Rainwise IP-100,2013-05-06 19:21:00,
2013-05-06 15:26:00,58.0,45.0,30.25,SSE,157,7.7,11.2,61,0.00,,,0.00,Rainwise IP-100,2013-05-06 19:26:00,
2013-05-06 15:31:00,54.0,44.0,30.25,SSE,157,5.4,11.0,68,0.00,,,0.00,Rainwise IP-100,2013-05-06 19:31:00,
2013-05-06 15:36:00,52.7,44.0,30.25,SE,135,5.4,11.7,73,0.00,,,0.00,Rainwise IP-100,2013-05-06 19:36:00,
2013-05-06 15:41:00,53.2,44.0,30.25,SE,135,5.8,9.8,73,0.00,,,0.00,Rainwise IP-100,2013-05-06 19:41:00,
2013-05-06 15:46:00,53.2,44.0,30.25,South,180,4.4,11.2,73,0.00,,,0.00,Rainwise IP-100,2013-05-06 19:46:00,
2013-05-06 15:51:00,52.6,45.0,30.25,SE,135,7.7,9.3,74,0.00,,,0.00,Rainwise IP-100,2013-05-06 19:51:00,
2013-05-06 15:56:00,51.9,44.0,30.24,ESE,112,9.3,10.3,75,0.00,,,0.00,Rainwise IP-100,2013-05-06 19:56:00,
2013-05-06 16:01:00,51.3,44.0,30.24,South,180,6.8,11.2,77,0.00,,,0.00,Rainwise IP-100,2013-05-06 20:01:00,
2013-05-06 16:06:00,51.5,45.0,30.24,SE,135,5.1,9.1,77,0.00,,,0.00,Rainwise IP-100,2013-05-06 20:06:00,
2013-05-06 16:11:00,51.9,45.0,30.24,SE,135,6.8,10.0,77,0.00,,,0.00,Rainwise IP-100,2013-05-06 20:11:00,
2013-05-06 16:16:00,51.8,45.0,30.24,SSE,157,6.5,11.0,77,0.00,,,0.00,Rainwise IP-100,2013-05-06 20:16:00,
2013-05-06 16:21:00,51.6,45.0,30.24,SE,135,7.2,9.8,77,0.00,,,0.00,Rainwise IP-100,2013-05-06 20:21:00,
2013-05-06 16:26:00,51.2,45.0,30.24,ESE,112,4.4,8.6,78,0.00,,,0.00,Rainwise IP-100,2013-05-06 20:26:00,
2013-05-06 16:31:00,50.4,45.0,30.24,SE,135,8.6,10.7,80,0.00,,,0.00,Rainwise IP-100,2013-05-06 20:31:00,
2013-05-06 16:36:00,49.6,45.0,30.24,SE,135,8.2,11.4,82,0.00,,,0.00,Rainwise IP-100,2013-05-06 20:36:00,
2013-05-06 16:41:00,49.2,44.0,30.24,South,180,3.5,10.7,83,0.00,,,0.00,Rainwise IP-100,2013-05-06 20:41:00,
2013-05-06 16:46:00,49.2,44.0,30.24,SSE,157,4.9,11.0,84,0.00,,,0.00,Rainwise IP-100,2013-05-06 20:46:00,
2013-05-06 16:51:00,49.7,45.0,30.23,South,180,5.1,7.7,84,0.00,,,0.00,Rainwise IP-100,2013-05-06 20:51:00,
2013-05-06 16:56:00,50.1,45.0,30.23,South,180,6.3,9.6,83,0.00,,,0.00,Rainwise IP-100,2013-05-06 20:56:00,
2013-05-06 17:01:00,50.0,45.0,30.23,SSE,157,6.1,11.2,83,0.00,,,0.00,Rainwise IP-100,2013-05-06 21:01:00,
2013-05-06 17:06:00,49.7,45.0,30.23,SE,135,4.9,9.3,83,0.00,,,0.00,Rainwise IP-100,2013-05-06 21:06:00,
2013-05-06 17:11:00,49.1,44.0,30.23,South,180,4.9,8.9,84,0.00,,,0.00,Rainwise IP-100,2013-05-06 21:11:00,
2013-05-06 17:16:00,48.6,45.0,30.23,South,180,5.4,10.3,85,0.00,,,0.00,Rainwise IP-100,2013-05-06 21:16:00,
2013-05-06 17:21:00,48.9,45.0,30.23,SSE,157,4.4,8.9,86,0.00,,,0.00,Rainwise IP-100,2013-05-06 21:21:00,
2013-05-06 17:26:00,48.8,45.0,30.23,SE,135,8.9,11.4,85,0.00,,,0.00,Rainwise IP-100,2013-05-06 21:26:00,
2013-05-06 17:31:00,48.6,45.0,30.23,SE,135,6.1,9.8,85,0.00,,,0.00,Rainwise IP-100,2013-05-06 21:31:00,
2013-05-06 17:36:00,48.9,45.0,30.23,SSE,157,6.8,8.4,85,0.00,,,0.00,Rainwise IP-100,2013-05-06 21:36:00,
2013-05-06 17:41:00,49.2,44.0,30.22,SE,135,5.4,8.9,84,0.00,,,0.00,Rainwise IP-100,2013-05-06 21:41:00,
2013-05-06 17:46:00,49.6,45.0,30.22,South,180,2.1,6.8,83,0.00,,,0.00,Rainwise IP-100,2013-05-06 21:46:00,
2013-05-06 17:51:00,49.9,45.0,30.22,SE,135,7.0,7.9,82,0.00,,,0.00,Rainwise IP-100,2013-05-06 21:51:00,
2013-05-06 17:56:00,49.6,45.0,30.22,SSE,157,6.1,8.6,82,0.00,,,0.00,Rainwise IP-100,2013-05-06 21:56:00,
2013-05-06 18:01:00,49.2,44.0,30.22,SE,135,7.0,9.6,83,0.00,,,0.00,Rainwise IP-100,2013-05-06 22:01:00,
2013-05-06 18:06:00,48.9,44.0,30.22,SE,135,4.0,8.6,84,0.00,,,0.00,Rainwise IP-100,2013-05-06 22:06:00,
2013-05-06 18:11:00,48.6,44.0,30.22,ESE,112,5.4,7.2,84,0.00,,,0.00,Rainwise IP-100,2013-05-06 22:11:00,
2013-05-06 18:16:00,48.5,45.0,30.22,SE,135,3.7,6.8,85,0.00,,,0.00,Rainwise IP-100,2013-05-06 22:16:00,
2013-05-06 18:21:00,48.9,44.0,30.22,SE,135,6.8,6.8,84,0.00,,,0.00,Rainwise IP-100,2013-05-06 22:21:00,
2013-05-06 18:26:00,49.2,44.0,30.22,South,180,2.6,8.4,84,0.00,,,0.00,Rainwise IP-100,2013-05-06 22:26:00,
2013-05-06 18:31:00,49.7,45.0,30.22,South,180,3.0,5.4,83,0.00,,,0.00,Rainwise IP-100,2013-05-06 22:31:00,
2013-05-06 18:36:00,50.7,45.0,30.22,SSW,202,5.6,6.1,81,0.00,,,0.00,Rainwise IP-100,2013-05-06 22:36:00,
2013-05-06 18:41:00,51.3,45.0,30.22,SSW,202,1.6,5.6,79,0.00,,,0.00,Rainwise IP-100,2013-05-06 22:41:00,
2013-05-06 18:46:00,51.2,45.0,30.22,South,180,0.0,4.9,79,0.00,,,0.00,Rainwise IP-100,2013-05-06 22:46:00,
2013-05-06 18:51:00,50.2,44.0,30.21,SE,135,2.3,5.6,80,0.00,,,0.00,Rainwise IP-100,2013-05-06 22:51:00,
2013-05-06 18:56:00,49.2,44.0,30.21,ESE,112,1.9,6.3,82,0.00,,,0.00,Rainwise IP-100,2013-05-06 22:56:00,
2013-05-06 19:01:00,48.7,44.0,30.21,SE,135,4.7,7.0,83,0.00,,,0.00,Rainwise IP-100,2013-05-06 23:01:00,
2013-05-06 19:06:00,48.4,44.0,30.21,SE,135,4.2,5.6,84,0.00,,,0.00,Rainwise IP-100,2013-05-06 23:06:00,
2013-05-06 19:11:00,47.8,44.0,30.20,ESE,112,5.6,9.1,85,0.00,,,0.00,Rainwise IP-100,2013-05-06 23:11:00,
2013-05-06 19:16:00,47.0,43.0,30.21,SSW,202,0.0,8.2,87,0.00,,,0.00,Rainwise IP-100,2013-05-06 23:16:00,
2013-05-06 19:21:00,46.9,43.0,30.21,South,180,6.3,6.3,88,0.00,,,0.00,Rainwise IP-100,2013-05-06 23:21:00,
2013-05-06 19:26:00,47.0,43.0,30.21,SSE,157,3.0,7.7,88,0.00,,,0.00,Rainwise IP-100,2013-05-06 23:26:00,
2013-05-06 19:31:00,46.9,43.0,30.21,SSW,202,0.0,5.1,88,0.00,,,0.00,Rainwise IP-100,2013-05-06 23:31:00,
2013-05-06 19:36:00,46.8,43.0,30.21,SSE,157,1.6,7.0,88,0.00,,,0.00,Rainwise IP-100,2013-05-06 23:36:00,
2013-05-06 19:41:00,46.4,42.0,30.21,ENE,67,0.0,5.1,88,0.00,,,0.00,Rainwise IP-100,2013-05-06 23:41:00,
2013-05-06 19:46:00,46.1,43.0,30.21,SSW,202,0.0,2.6,89,0.00,,,0.00,Rainwise IP-100,2013-05-06 23:46:00,
2013-05-06 19:51:00,46.0,43.0,30.21,East,90,1.4,2.8,90,0.00,,,0.00,Rainwise IP-100,2013-05-06 23:51:00,
2013-05-06 19:56:00,45.9,43.0,30.20,WNW,292,0.0,3.5,90,0.00,,,0.00,Rainwise IP-100,2013-05-06 23:56:00,
2013-05-06 20:01:00,45.7,43.0,30.20,South,180,3.3,4.4,90,0.00,,,0.00,Rainwise IP-100,2013-05-07 00:01:00,
2013-05-06 20:06:00,45.4,42.0,30.20,SSE,157,0.0,4.2,90,0.00,,,0.00,Rainwise IP-100,2013-05-07 00:06:00,
2013-05-06 20:11:00,45.3,42.0,30.20,SE,135,0.0,2.3,90,0.00,,,0.00,Rainwise IP-100,2013-05-07 00:11:00,
2013-05-06 20:16:00,45.1,42.0,30.21,ESE,112,2.1,2.3,91,0.00,,,0.00,Rainwise IP-100,2013-05-07 00:16:00,
2013-05-06 20:21:00,45.0,42.0,30.21,NNE,22,0.0,2.8,91,0.00,,,0.00,Rainwise IP-100,2013-05-07 00:21:00,
2013-05-06 20:26:00,45.0,42.0,30.21,North,0,3.5,3.7,91,0.00,,,0.00,Rainwise IP-100,2013-05-07 00:26:00,
2013-05-06 20:31:00,45.2,43.0,30.21,NW,315,2.3,3.5,92,0.00,,,0.00,Rainwise IP-100,2013-05-07 00:31:00,
2013-05-06 20:36:00,45.3,43.0,30.21,WNW,292,0.0,3.3,92,0.00,,,0.00,Rainwise IP-100,2013-05-07 00:36:00,
2013-05-06 20:41:00,45.0,43.0,30.22,East,90,3.5,3.5,92,0.00,,,0.00,Rainwise IP-100,2013-05-07 00:41:00,
2013-05-06 20:46:00,44.4,42.0,30.22,ENE,67,1.2,10.0,92,0.00,,,0.00,Rainwise IP-100,2013-05-07 00:46:00,
2013-05-06 20:51:00,43.9,42.0,30.22,North,0,0.0,4.0,93,0.00,,,0.00,Rainwise IP-100,2013-05-07 00:51:00,
2013-05-06 20:56:00,43.7,42.0,30.22,SSW,202,0.0,2.1,93,0.00,,,0.00,Rainwise IP-100,2013-05-07 00:56:00,
2013-05-06 21:01:00,43.7,42.0,30.22,NNE,22,1.2,3.3,93,0.00,,,0.00,Rainwise IP-100,2013-05-07 01:01:00,
2013-05-06 21:06:00,43.7,42.0,30.22,NNE,22,0.0,3.0,94,0.00,,,0.00,Rainwise IP-100,2013-05-07 01:06:00,
2013-05-06 21:11:00,43.8,42.0,30.22,NNE,22,0.0,2.3,94,0.00,,,0.00,Rainwise IP-100,2013-05-07 01:11:00,
2013-05-06 21:16:00,43.8,43.0,30.22,NNE,22,1.2,3.3,95,0.00,,,0.00,Rainwise IP-100,2013-05-07 01:16:00,
2013-05-06 21:21:00,43.8,43.0,30.22,ENE,67,0.0,3.5,95,0.00,,,0.00,Rainwise IP-100,2013-05-07 01:21:00,
2013-05-06 21:26:00,43.8,43.0,30.22,NNE,22,1.9,4.0,95,0.00,,,0.00,Rainwise IP-100,2013-05-07 01:26:00,
2013-05-06 21:31:00,43.8,43.0,30.23,NNE,22,1.2,4.2,95,0.00,,,0.00,Rainwise IP-100,2013-05-07 01:31:00,
2013-05-06 21:36:00,43.8,43.0,30.23,NW,315,2.3,5.4,95,0.00,,,0.00,Rainwise IP-100,2013-05-07 01:36:00,
2013-05-06 21:41:00,43.7,43.0,30.22,NW,315,4.0,4.2,95,0.00,,,0.00,Rainwise IP-100,2013-05-07 01:41:00,
2013-05-06 21:46:00,43.7,43.0,30.23,NW,315,0.0,4.2,95,0.00,,,0.00,Rainwise IP-100,2013-05-07 01:46:00,
2013-05-06 21:51:00,43.6,43.0,30.23,WNW,292,1.4,4.2,96,0.00,,,0.00,Rainwise IP-100,2013-05-07 01:51:00,
2013-05-06 21:56:00,43.5,43.0,30.23,West,270,2.3,4.2,96,0.00,,,0.00,Rainwise IP-100,2013-05-07 01:56:00,
2013-05-06 22:01:00,43.5,43.0,30.22,NW,315,0.0,3.7,96,0.00,,,0.00,Rainwise IP-100,2013-05-07 02:01:00,
2013-05-06 22:06:00,43.6,43.0,30.22,NNE,22,0.0,4.7,96,0.00,,,0.00,Rainwise IP-100,2013-05-07 02:06:00,
2013-05-06 22:11:00,43.7,43.0,30.23,NNW,337,2.3,4.0,96,0.00,,,0.00,Rainwise IP-100,2013-05-07 02:11:00,
2013-05-06 22:16:00,43.9,43.0,30.23,NNE,22,1.2,4.9,96,0.00,,,0.00,Rainwise IP-100,2013-05-07 02:16:00,
2013-05-06 22:21:00,44.0,43.0,30.23,NNE,22,1.9,3.7,96,0.00,,,0.00,Rainwise IP-100,2013-05-07 02:21:00,
2013-05-06 22:26:00,44.0,43.0,30.23,ENE,67,0.0,2.8,96,0.00,,,0.00,Rainwise IP-100,2013-05-07 02:26:00,
2013-05-06 22:31:00,44.0,43.0,30.23,NE,45,0.0,3.7,96,0.00,,,0.00,Rainwise IP-100,2013-05-07 02:31:00,
2013-05-06 22:36:00,44.0,43.0,30.23,North,0,0.0,1.6,96,0.00,,,0.00,Rainwise IP-100,2013-05-07 02:36:00,
2013-05-06 22:41:00,44.0,43.0,30.23,North,0,1.2,2.1,96,0.00,,,0.00,Rainwise IP-100,2013-05-07 02:41:00,
2013-05-06 22:46:00,43.9,43.0,30.22,NNW,337,1.9,2.6,96,0.00,,,0.00,Rainwise IP-100,2013-05-07 02:46:00,
2013-05-06 22:51:00,43.8,43.0,30.23,WNW,292,0.0,3.3,96,0.00,,,0.00,Rainwise IP-100,2013-05-07 02:51:00,
2013-05-06 22:56:00,43.8,43.0,30.23,NW,315,1.4,2.6,96,0.00,,,0.00,Rainwise IP-100,2013-05-07 02:56:00,
2013-05-06 23:01:00,43.8,43.0,30.22,NW,315,0.0,1.9,96,0.00,,,0.00,Rainwise IP-100,2013-05-07 03:01:00,
2013-05-06 23:06:00,44.0,43.0,30.22,NW,315,0.0,1.9,96,0.00,,,0.00,Rainwise IP-100,2013-05-07 03:06:00,
2013-05-06 23:11:00,44.1,43.0,30.22,NNE,22,0.0,1.9,97,0.00,,,0.00,Rainwise IP-100,2013-05-07 03:11:00,
2013-05-06 23:16:00,44.3,43.0,30.22,NW,315,2.1,2.1,97,0.00,,,0.00,Rainwise IP-100,2013-05-07 03:16:00,
2013-05-06 23:21:00,44.4,43.0,30.22,NW,315,2.8,3.3,97,0.00,,,0.00,Rainwise IP-100,2013-05-07 03:21:00,
2013-05-06 23:26:00,44.3,43.0,30.22,NW,315,1.2,3.3,96,0.00,,,0.00,Rainwise IP-100,2013-05-07 03:26:00,
2013-05-06 23:31:00,44.3,43.0,30.22,NW,315,0.0,3.5,96,0.00,,,0.00,Rainwise IP-100,2013-05-07 03:31:00,
2013-05-06 23:36:00,44.5,44.0,30.22,NNW,337,2.8,2.8,97,0.00,,,0.00,Rainwise IP-100,2013-05-07 03:36:00,
2013-05-06 23:41:00,44.6,44.0,30.21,NNW,337,2.1,4.2,97,0.00,,,0.00,Rainwise IP-100,2013-05-07 03:41:00,
2013-05-06 23:46:00,44.6,44.0,30.22,ENE,67,0.0,4.4,97,0.00,,,0.00,Rainwise IP-100,2013-05-07 03:46:00,
2013-05-06 23:51:00,44.7,44.0,30.21,NNE,22,0.0,4.7,97,0.00,,,0.00,Rainwise IP-100,2013-05-07 03:51:00,
2013-05-06 23:56:00,44.8,44.0,30.21,North,0,0.0,4.9,97,0.00,,,0.00,Rainwise IP-100,2013-05-07 03:56:00,